Wind_Speed
35 36 36 36 35 33 32 31 29 28 28 26 24 21 19 17 16 17 17 17 16 16 17 17 17 15 15 15 15 15 14 13 13 13 14 14 14 14 14 15 16 16 15 15 15 15 16 17 17 18 18 19 19 19 19 19 19 19 18 17 17 17 18 17 12 13 25 28 24 27 30 28 30 34 33 35 36 35 34 33 32 31 31 32 32
36 36 35 34 34 34 35 33 31 30 29 27 24 21 18 16 16 17 17 16 15 16 17 17 16 16 16 16 16 16 15 14 14 15 15 15 15 15 16 17 18 18 18 18 17 17 17 18 18 17 17 19 20 19 19 20 20 21 20 19 20 21 20 21 18 14 21 27 25 25 29 29 30 35 35 35 37 37 37 35 33 33 32 33 34
36 33 31 33 35 37 36 34 33 32 30 28 25 21 17 15 16 17 17 16 16 17 18 17 17 17 18 18 18 18 17 17 17 17 18 17 17 17 17 18 19 20 20 19 18 18 18 19 19 18 17 18 20 19 19 20 20 21 22 21 22 23 23 23 22 19 20 25 26 25 28 29 31 35 36 36 36 36 37 36 34 34 34 34 35
31 30 32 35 36 36 36 34 34 35 33 30 27 24 19 16 16 18 17 16 17 18 18 19 19 19 20 20 20 19 19 20 20 19 19 18 18 17 17 17 18 19 19 18 17 17 18 19 19 18 18 18 19 19 19 19 20 20 22 22 22 24 25 25 24 23 20 21 26 28 27 28 31 33 34 35 35 35 36 37 35 35 36 35 34
29 30 33 34 34 36 35 34 36 37 35 32 29 25 22 20 18 18 18 18 19 20 20 20 21 21 22 22 22 21 21 21 21 20 18 17 16 15 14 14 15 15 16 16 16 16 17 19 19 18 19 19 19 19 19 18 19 19 20 21 21 22 23 24 25 23 20 20 25 29 29 28 30 32 32 31 32 33 33 34 36 35 35 35 34
28 30 32 33 34 36 35 36 37 38 37 34 30 27 25 21 18 19 19 19 21 22 22 23 24 24 24 23 23 22 22 22 22 20 17 16 15 14 13 13 14 14 15 15 15 16 17 17 18 19 20 20 20 19 19 18 18 18 19 19 20 21 22 23 23 22 20 20 24 28 30 30 29 31 32 29 28 30 28 29 34 35 32 32 33
29 31 33 35 37 38 39 40 41 40 39 36 33 31 28 23 21 22 22 20 22 25 25 26 26 26 25 25 25 24 23 22 21 19 16 15 14 14 13 14 14 15 15 15 15 15 16 17 18 19 20 21 21 20 19 18 18 18 19 19 19 20 21 21 22 22 19 18 20 24 27 28 27 28 31 30 29 30 28 24 26 32 33 32 33
31 33 36 38 39 40 41 43 43 41 39 37 35 34 30 26 24 24 22 22 25 28 28 28 28 27 27 27 25 23 22 21 19 18 17 16 15 15 15 15 15 16 15 15 16 16 17 18 18 19 20 20 21 20 19 19 19 19 19 19 20 20 20 20 21 21 18 14 16 19 21 24 25 25 27 27 26 26 27 24 23 29 34 34 34
33 35 37 39 39 39 40 41 40 38 37 36 35 32 27 24 22 22 24 27 28 29 29 30 30 29 28 25 22 21 20 20 19 18 18 17 16 16 16 16 17 18 18 17 17 18 18 18 19 19 19 20 20 20 19 19 20 21 21 20 21 21 20 20 20 20 17 13 14 18 20 23 25 25 24 25 24 25 28 28 26 28 32 33 34
34 36 37 37 36 36 39 40 39 37 36 32 28 24 20 19 20 25 30 31 30 29 30 33 32 30 28 23 21 20 20 20 19 19 18 18 17 17 17 18 19 20 20 20 19 19 19 19 20 20 20 20 20 19 19 19 19 21 21 22 23 23 21 20 21 20 16 13 15 18 19 21 25 26 27 28 28 27 27 26 27 28 28 27 29
34 35 36 36 35 37 41 41 40 39 37 29 22 21 23 25 26 32 35 33 31 30 31 33 33 31 27 23 21 21 21 19 18 17 16 16 17 17 18 20 21 22 22 22 21 21 20 20 21 22 22 22 21 20 19 18 19 19 21 22 24 24 22 21 22 22 17 13 14 17 18 21 26 28 29 29 29 29 27 26 28 28 26 22 22
34 36 36 36 37 40 42 41 39 38 37 31 27 27 31 33 33 35 37 35 33 32 32 33 33 30 27 24 23 23 21 19 16 15 15 15 16 18 20 21 22 23 23 23 22 21 21 21 22 24 24 23 21 19 18 19 21 22 22 22 22 24 24 22 22 22 19 16 16 18 20 23 26 28 27 27 28 29 28 28 29 28 26 24 22
35 36 36 37 38 40 41 39 36 36 36 35 33 33 34 35 35 36 37 36 34 32 31 31 30 29 27 25 25 25 23 20 17 16 16 17 18 19 20 20 20 21 21 21 21 21 21 23 24 24 24 23 20 18 18 21 23 24 24 22 22 24 24 22 21 21 21 19 18 21 23 23 24 26 28 28 29 30 30 30 32 30 28 27 27
34 35 35 36 37 37 38 36 33 32 34 34 34 34 35 36 36 36 35 33 32 31 29 28 28 28 28 27 26 27 25 22 19 17 17 18 19 19 19 17 17 17 18 18 19 20 21 22 23 23 22 20 18 18 21 22 22 22 23 22 23 23 22 21 21 21 21 19 18 21 25 25 24 26 29 29 29 30 30 31 32 32 32 33 33
32 33 33 33 34 34 34 32 29 29 30 31 32 33 34 35 34 32 31 30 30 28 27 27 28 28 28 27 28 29 28 23 19 18 19 20 19 17 15 14 14 14 14 15 17 20 21 21 19 19 18 18 19 20 20 20 19 20 22 22 22 22 21 21 20 19 19 18 18 21 25 29 30 29 30 31 31 32 32 32 33 33 34 36 36
29 31 31 31 31 33 33 31 29 29 29 29 31 33 34 33 31 29 29 29 26 25 25 27 27 27 27 28 29 30 29 23 20 20 20 18 16 14 12 10 10 11 13 16 18 19 19 18 16 16 17 18 19 18 17 17 18 20 21 22 22 21 22 21 18 17 19 19 21 24 28 32 33 32 31 31 31 33 31 30 32 31 30 31 32
28 29 29 29 30 32 32 31 30 30 30 30 32 33 34 32 29 28 28 26 23 23 25 26 26 26 26 28 31 31 29 25 21 18 16 14 13 11 8 8 10 12 15 16 17 17 17 16 16 16 17 17 17 18 17 17 18 18 19 19 18 18 19 19 17 18 21 22 26 30 32 32 31 30 29 28 27 28 26 26 30 29 27 23 20
26 27 28 30 30 32 32 32 31 31 31 32 34 35 33 30 27 26 25 23 22 23 24 25 27 27 27 28 30 30 28 23 17 14 12 11 10 8 7 9 11 13 14 14 15 16 16 15 15 15 16 18 19 19 19 18 18 17 15 14 13 14 16 17 18 21 24 26 29 31 31 29 26 25 26 25 25 25 22 24 27 27 26 22 19
25 27 28 28 29 31 32 33 33 33 32 33 35 33 30 26 24 23 24 23 23 23 23 24 26 27 27 27 28 26 22 17 12 10 10 9 8 7 8 10 11 12 13 13 15 16 16 15 15 14 16 18 20 20 19 17 17 16 13 12 12 13 15 17 19 24 27 30 31 30 28 25 23 22 24 26 27 26 23 23 26 26 26 28 28
24 24 23 25 27 29 31 34 35 34 33 33 32 29 26 24 24 24 24 24 24 23 23 24 25 25 24 24 23 20 17 13 9 8 9 9 8 7 7 9 10 11 13 15 16 17 17 17 16 16 17 18 19 19 18 16 15 14 13 12 11 12 15 18 21 24 27 28 27 25 24 24 23 23 26 28 29 28 26 26 27 28 29 32 35
19 20 21 23 25 28 31 33 34 33 32 30 27 25 24 24 25 24 24 23 22 21 21 22 23 22 20 20 19 18 16 13 10 10 9 8 8 7 7 9 10 11 14 16 17 17 17 18 18 17 17 17 17 18 17 16 15 15 13 11 10 13 17 20 23 23 24 23 22 20 20 21 22 24 26 28 29 29 30 30 30 31 33 35 37
16 19 21 23 24 27 29 30 29 27 25 23 20 18 19 20 21 21 22 21 20 20 20 19 18 17 17 19 19 20 19 13 9 9 9 8 8 8 8 9 10 12 14 16 16 16 17 18 17 16 16 16 16 17 17 17 15 12 10 9 11 15 18 20 21 21 20 19 18 18 19 19 20 23 25 27 29 31 31 32 32 33 35 37 38
16 18 21 23 23 25 26 25 23 19 17 20 22 21 19 18 18 20 21 19 18 19 18 17 17 17 18 19 18 18 17 12 8 9 10 9 8 8 8 9 11 13 14 15 15 16 16 16 16 15 15 15 15 15 14 12 10 8 8 10 13 15 16 17 18 17 16 15 14 15 18 18 18 22 25 27 30 32 31 32 33 34 37 39 41
15 17 19 21 22 22 22 21 19 17 16 19 23 27 26 21 17 17 18 18 18 18 18 18 18 18 18 18 16 14 14 12 10 11 11 9 8 8 8 10 11 12 13 14 15 15 15 15 15 14 13 12 11 10 8 7 7 8 10 12 13 14 14 14 14 13 12 12 12 14 17 18 19 23 27 29 31 30 29 30 33 35 37 39 42
15 17 19 20 21 22 21 21 22 21 19 19 23 27 26 18 13 14 17 18 18 18 17 18 18 18 18 18 15 12 12 12 11 11 10 8 8 8 9 10 11 11 12 13 14 14 13 13 12 11 9 8 7 7 6 7 7 9 11 12 13 13 12 11 11 10 9 11 12 13 17 20 22 24 28 29 28 27 27 30 33 35 37 40 43
18 19 20 22 23 23 22 23 23 22 21 22 25 24 19 14 14 15 18 19 19 18 18 19 19 19 19 18 14 12 12 12 11 11 10 9 9 9 9 10 10 11 12 13 12 11 10 9 8 6 5 5 6 6 7 8 9 10 11 12 11 11 10 9 8 9 10 12 13 15 18 22 24 25 27 28 27 26 27 29 32 35 38 39 40
20 20 21 22 23 23 23 22 21 19 18 21 23 22 20 19 18 16 17 18 19 19 20 20 19 19 20 18 16 14 14 13 13 13 12 10 10 10 10 9 10 11 12 11 10 8 7 6 5 4 4 5 6 7 7 8 8 9 9 9 8 8 8 7 8 9 11 13 15 17 20 22 23 25 27 28 28 28 28 27 27 31 36 36 33
20 20 21 22 22 22 22 22 21 19 16 17 19 21 21 19 17 16 18 20 20 20 21 21 20 19 18 18 16 14 14 15 16 15 13 12 11 10 10 10 11 11 11 9 8 6 5 5 5 4 5 5 6 7 7 6 6 6 6 7 7 7 7 8 9 10 11 14 15 17 20 21 23 25 27 29 30 30 29 27 26 29 34 33 28
19 19 19 20 21 22 22 21 20 17 15 14 14 14 14 15 16 18 19 20 21 21 20 19 17 16 15 15 15 15 14 16 16 14 13 12 11 11 11 11 10 9 7 6 5 4 4 5 5 5 5 6 6 6 5 5 4 5 5 6 7 8 9 10 11 13 14 15 16 18 19 19 21 24 26 29 31 31 29 28 27 29 31 29 26
19 19 20 20 21 22 21 17 14 12 13 13 12 11 11 12 14 15 16 16 17 18 17 15 13 13 12 13 13 13 12 12 12 12 12 12 11 11 11 10 8 6 4 3 2 3 5 6 7 7 6 6 5 4 3 4 5 6 7 8 9 11 11 12 12 13 14 15 17 18 18 18 19 22 24 27 31 31 29 28 27 27 28 26 25
22 22 22 20 20 20 19 15 12 11 12 12 12 12 11 9 9 10 10 11 12 13 13 12 10 9 9 10 12 12 11 9 8 9 10 11 11 11 10 8 5 3 2 2 3 4 6 7 7 7 6 5 4 3 3 4 5 8 9 11 11 12 13 13 13 14 15 15 16 18 19 19 20 22 23 26 29 30 30 29 28 28 28 27 25
24 22 21 18 17 17 15 13 12 12 12 11 11 11 11 10 9 8 7 7 7 8 9 9 10 10 10 10 10 11 10 8 7 7 8 9 9 8 7 5 4 2 2 3 4 6 7 8 8 7 6 5 3 2 3 5 6 8 10 12 12 12 12 12 13 13 13 14 16 17 19 20 21 23 24 25 27 28 28 28 28 27 27 27 27
21 20 18 17 16 15 14 13 11 10 9 9 10 10 11 12 11 10 8 7 7 8 10 10 10 11 11 10 9 7 7 7 7 7 7 7 6 6 5 4 3 2 3 4 6 7 7 8 7 6 5 3 1 2 4 6 8 9 10 11 11 11 10 10 11 11 12 13 15 17 19 20 22 23 25 25 25 26 26 25 25 25 24 25 27
17 16 15 16 17 16 14 12 11 10 10 10 10 11 12 12 12 12 12 11 10 10 10 10 10 9 9 8 7 6 6 6 6 5 5 4 5 5 5 4 4 3 4 6 7 8 8 7 6 5 3 1 1 3 5 7 9 9 10 10 9 9 9 9 9 11 12 13 15 17 18 20 21 22 24 25 25 25 25 24 24 24 23 22 24
12 11 11 12 15 14 12 11 10 10 10 10 11 12 13 13 13 14 14 13 13 11 9 9 9 8 7 6 6 6 6 6 5 4 4 4 5 6 6 6 6 6 6 7 7 7 6 6 5 4 2 1 2 4 6 8 9 9 9 10 9 9 9 9 9 11 12 13 15 17 17 19 21 21 22 23 23 23 25 23 21 21 22 22 22
11 11 10 10 10 10 9 10 10 11 11 12 12 13 14 13 13 12 11 11 11 11 11 10 10 9 8 8 8 8 8 7 5 4 4 4 5 6 7 8 8 7 7 7 6 5 5 5 4 3 2 2 3 5 7 8 9 8 8 8 8 7 8 9 10 11 12 13 15 17 17 19 21 22 22 21 20 21 23 22 19 19 21 22 21
11 12 11 9 9 8 8 10 11 12 12 12 12 12 12 11 10 10 9 9 9 12 13 14 14 13 12 11 11 10 9 7 5 4 3 4 5 5 6 6 7 7 7 7 6 5 5 4 3 2 1 2 4 6 8 7 7 7 7 6 6 6 7 8 9 11 12 13 14 16 18 19 20 22 21 20 19 21 23 22 20 19 21 23 22
8 9 8 8 7 7 8 10 11 11 11 11 11 11 11 9 8 9 10 10 11 14 17 18 18 18 16 15 13 11 10 8 6 5 4 4 4 5 5 5 5 6 7 7 6 5 5 4 3 1 1 2 5 7 7 6 6 6 5 4 4 5 6 7 9 10 11 12 14 16 18 19 20 21 22 20 18 19 22 23 22 20 22 23 23
6 6 6 5 5 6 7 8 9 9 9 9 9 10 10 9 9 10 12 13 14 17 19 19 19 18 18 17 16 14 12 10 8 7 7 6 6 6 5 5 5 5 6 8 7 6 5 5 3 2 1 3 5 6 6 5 5 4 4 3 3 5 6 7 9 11 12 13 14 16 17 18 19 20 22 21 19 19 22 23 22 20 19 21 22
9 8 7 6 6 6 6 6 6 7 8 9 9 10 10 10 10 12 14 14 16 17 17 17 17 18 19 19 17 15 13 11 10 9 9 9 9 8 7 6 5 5 6 8 8 7 5 5 4 3 2 3 5 6 6 5 4 3 2 2 3 5 6 7 9 10 12 13 14 15 17 18 19 20 21 21 20 21 21 22 22 21 20 21 21
11 10 10 9 8 8 7 6 6 6 7 7 8 10 11 11 12 13 14 15 14 14 15 17 19 21 21 18 15 12 11 10 9 8 9 9 10 10 8 7 6 5 6 7 8 8 6 6 5 4 3 3 5 6 6 5 3 2 1 1 3 4 6 7 8 9 11 13 14 15 16 17 18 19 21 21 21 21 21 22 22 22 22 22 21
11 11 11 9 7 6 5 5 4 4 5 6 7 9 11 11 12 12 14 14 12 11 14 18 21 21 20 17 14 12 11 10 8 8 8 9 10 9 8 6 6 6 5 6 7 8 7 7 6 5 4 4 5 6 5 4 3 2 1 1 2 4 5 6 7 8 10 12 14 14 15 16 17 18 19 20 21 21 21 22 23 22 22 23 22
11 11 10 8 7 5 5 4 4 4 5 6 8 9 10 11 11 12 12 12 10 10 13 18 20 20 19 17 14 12 11 9 9 8 8 8 9 8 7 6 6 6 6 6 6 7 8 7 7 6 5 4 5 6 5 3 2 1 0 1 2 3 5 6 7 8 10 12 13 14 14 16 16 17 18 18 19 20 21 22 23 23 23 23 22
12 11 10 8 8 7 6 6 6 6 7 8 9 10 10 10 11 11 11 10 8 8 12 16 18 19 20 19 16 13 11 10 10 9 8 8 9 8 7 7 7 7 7 7 6 7 8 7 6 5 4 4 5 4 4 3 2 1 1 1 1 3 4 5 6 8 10 12 13 13 14 15 15 16 16 17 18 19 20 21 21 22 22 22 21
11 11 10 10 9 8 8 8 8 8 9 9 9 9 9 8 8 9 9 9 9 8 11 14 16 19 20 20 17 14 12 11 10 9 8 9 9 9 8 8 8 7 7 7 7 8 8 7 6 4 4 4 3 3 3 3 2 2 2 1 1 2 4 5 6 8 10 12 12 12 13 14 14 14 15 16 16 17 18 19 19 20 20 19 19
11 11 11 10 10 9 9 9 9 8 8 8 8 7 7 6 6 6 8 9 10 10 11 13 14 16 18 18 17 14 13 12 11 10 10 10 9 9 10 9 9 9 9 8 8 8 8 7 5 4 4 3 1 2 4 4 3 3 3 3 2 2 3 5 6 7 9 12 12 11 12 13 13 12 12 13 14 15 16 16 18 19 18 17 17
11 11 10 10 10 10 10 10 9 8 7 6 5 5 5 5 6 6 7 9 9 10 10 11 12 14 16 16 16 15 14 13 12 11 11 11 10 9 10 11 11 11 11 10 10 9 9 7 5 4 3 2 0 2 4 4 4 5 5 5 4 3 3 4 5 7 9 11 11 10 11 12 12 11 11 11 12 13 14 15 16 18 18 17 17
11 11 10 9 9 10 10 9 8 7 5 4 4 4 3 4 5 6 7 8 9 10 10 10 11 13 14 15 16 16 16 15 14 13 13 13 11 10 11 12 12 13 13 13 12 11 10 7 6 4 3 3 2 1 3 5 6 7 7 7 6 5 4 3 4 5 7 9 10 9 9 11 10 9 9 10 10 11 13 14 14 15 17 18 18
11 10 9 8 8 8 8 7 6 4 3 3 2 2 2 3 4 5 7 8 9 10 11 12 13 14 15 16 17 18 18 17 16 15 15 15 13 11 12 13 13 14 14 15 15 13 11 8 6 5 5 5 4 1 2 5 6 7 9 9 8 7 5 4 4 4 6 8 8 8 8 9 9 8 8 9 9 10 12 13 12 13 15 17 19
9 8 8 7 7 6 5 4 3 2 2 2 3 3 4 5 6 7 8 9 11 13 14 15 16 16 17 17 18 18 19 20 19 18 17 17 16 14 13 14 15 15 15 16 16 15 13 10 7 6 6 6 6 4 1 2 4 6 8 9 10 9 7 5 4 4 5 6 7 6 6 8 8 6 6 7 8 8 10 12 11 12 14 16 18
8 7 7 6 5 5 4 4 3 2 2 2 4 5 6 8 10 11 12 14 15 16 17 18 18 19 19 19 18 18 19 20 20 19 18 18 18 17 15 15 15 15 16 17 17 16 14 12 9 8 8 8 7 5 3 1 3 4 6 8 10 11 9 5 4 4 4 5 6 5 5 7 7 6 6 7 7 8 10 11 10 12 14 15 16
Wind_Direction
213 214 214 214 214 214 214 213 213 215 215 214 215 218 222 226 227 223 221 222 225 224 222 219 219 222 227 234 238 240 243 245 247 250 252 253 254 257 261 265 269 272 276 279 282 286 287 286 284 281 279 276 275 274 270 266 264 261 257 255 256 258 253 242 233 263 282 284 284 291 297 298 298 301 304 306 310 313 313 312 311 312 313 315 316
213 213 211 210 210 211 213 211 211 213 212 211 210 210 218 229 231 226 225 227 228 224 221 220 224 230 235 240 242 244 246 248 251 254 257 259 261 262 264 267 270 273 277 281 284 286 286 284 284 284 281 277 275 275 274 270 266 263 261 258 260 264 260 253 247 253 277 285 286 291 295 294 295 300 302 304 307 310 310 310 310 309 311 312 312
212 209 206 208 209 210 211 208 206 208 207 205 204 203 208 224 231 229 228 231 229 224 223 225 231 236 240 243 247 249 250 252 255 259 263 268 271 272 274 273 273 275 277 281 285 286 284 282 283 285 283 279 277 276 277 274 269 266 266 265 264 269 270 264 258 257 272 285 289 290 293 293 293 298 301 302 304 306 307 308 309 308 309 310 308
209 205 204 208 208 207 207 204 202 204 204 202 201 199 200 210 226 231 230 232 231 228 228 231 235 239 241 244 248 251 253 254 258 263 268 274 275 275 277 276 275 275 276 280 284 284 283 281 283 286 285 282 280 278 277 276 274 270 270 271 270 273 276 274 268 265 270 283 288 289 290 290 292 296 300 301 301 303 304 306 307 307 307 308 306
206 202 204 205 204 203 202 200 200 202 202 201 201 201 198 200 215 227 229 232 233 233 236 237 239 240 241 244 247 250 254 258 262 267 269 269 268 268 271 273 273 274 275 279 281 281 282 282 283 285 284 282 282 280 277 276 277 276 275 277 278 280 282 281 277 273 270 275 283 288 290 291 292 295 296 298 300 301 303 304 305 305 305 306 305
202 199 201 201 201 200 198 199 200 201 201 201 202 203 199 196 207 222 226 230 234 236 238 240 242 243 243 245 248 251 255 260 263 265 262 258 256 258 262 266 270 274 276 278 279 281 283 284 285 285 282 281 282 281 278 276 275 276 278 280 284 286 286 286 285 281 276 276 281 287 290 291 292 293 295 296 296 298 299 300 303 305 304 303 303
198 197 199 200 201 199 197 201 202 201 200 201 202 203 198 194 202 216 221 227 235 237 236 236 240 245 246 246 248 252 257 260 260 257 254 251 249 254 262 266 272 277 280 280 281 284 286 288 289 287 283 283 283 282 278 275 274 275 276 280 283 285 285 288 290 287 281 279 281 283 286 290 290 290 293 295 295 294 293 292 297 302 302 300 300
195 197 198 201 202 199 198 201 201 200 200 201 203 203 199 194 200 214 220 223 232 237 236 236 240 245 247 247 250 255 257 256 254 253 253 250 249 259 267 271 275 278 280 283 286 288 290 291 290 287 285 285 285 284 281 278 276 275 276 278 280 282 284 288 290 288 283 279 279 281 286 290 290 289 291 293 291 290 292 291 289 293 297 299 299
195 197 198 201 202 199 197 198 197 196 196 199 203 202 198 194 200 216 224 224 230 235 235 237 242 247 248 249 255 257 253 251 253 256 258 254 256 266 271 274 277 278 278 282 285 287 289 289 287 286 285 286 287 287 285 282 279 277 277 278 278 279 282 285 286 284 281 277 278 283 287 289 289 291 291 288 284 286 291 293 288 289 294 295 295
195 196 198 200 199 196 197 197 195 193 193 197 200 197 192 194 206 223 229 229 231 231 232 237 244 248 249 251 258 256 250 252 257 260 262 261 263 269 272 275 277 276 277 279 281 284 285 286 287 285 284 285 287 288 289 288 286 283 280 278 277 278 279 282 283 280 276 273 276 282 286 287 288 291 291 288 287 288 289 290 289 291 295 294 292
195 197 199 199 196 195 197 197 195 194 193 193 193 189 190 198 213 228 233 232 231 231 233 239 244 248 249 252 258 253 248 253 258 258 260 261 264 268 271 276 278 277 276 277 278 282 283 285 287 287 286 286 286 288 292 292 294 295 290 283 278 277 277 278 280 278 273 270 273 277 280 284 288 291 291 289 291 291 291 290 290 291 295 295 293
196 198 199 198 195 196 197 196 195 193 190 188 189 190 195 203 214 227 231 230 231 234 237 241 245 249 250 252 253 249 247 252 253 253 258 259 262 267 271 276 278 278 277 276 278 280 282 285 286 287 288 288 287 290 292 293 297 300 297 288 278 274 273 275 276 276 273 270 272 275 278 282 287 289 288 289 292 293 292 291 290 288 287 288 288
197 199 199 198 196 196 197 195 193 191 188 186 187 192 201 208 216 226 230 229 231 236 240 243 247 250 250 250 249 245 245 249 250 252 257 260 264 268 271 276 279 278 277 276 277 279 283 286 287 288 290 289 288 292 297 299 300 297 293 287 278 272 272 275 279 279 274 269 270 275 279 282 284 285 287 290 292 293 292 291 289 286 284 286 286
198 199 198 198 197 195 194 192 190 186 184 183 186 194 206 214 219 226 229 228 231 238 243 246 248 249 248 248 246 244 245 249 252 255 258 263 268 268 271 278 283 283 279 277 279 283 286 287 288 291 292 291 291 296 301 303 302 296 291 285 279 275 273 278 286 285 277 272 271 276 283 286 285 285 289 292 291 290 290 289 289 288 288 290 288
198 199 199 198 196 192 190 189 184 178 178 184 191 201 212 218 221 225 228 229 234 241 246 247 247 249 250 247 245 244 246 249 255 258 261 266 268 267 271 279 284 283 282 282 285 287 289 290 292 295 295 295 297 300 303 304 302 297 292 287 284 283 282 287 292 290 286 286 283 283 289 292 292 290 291 291 290 288 288 287 288 290 291 291 290
197 198 198 196 192 189 187 183 177 170 176 192 203 209 215 219 222 224 228 232 239 244 246 246 247 251 252 248 245 245 247 251 256 259 263 268 267 266 269 275 280 282 285 288 289 289 291 295 299 301 300 300 301 301 301 301 298 294 290 289 291 291 291 294 297 293 292 294 294 295 296 297 296 295 293 293 292 292 294 295 294 295 293 291 291
198 197 197 194 190 188 184 180 176 174 182 199 209 212 216 220 223 225 228 235 243 247 246 247 250 254 255 250 247 246 248 252 256 260 266 269 264 262 266 272 280 285 287 290 290 290 295 301 305 305 303 302 302 301 300 297 293 289 287 288 289 290 295 300 300 295 294 296 299 301 302 302 303 303 304 303 302 301 299 293 292 295 295 290 290
198 196 197 194 189 186 182 180 178 178 186 201 209 213 218 221 224 227 231 241 253 255 252 252 254 254 255 253 248 246 247 251 254 260 264 261 254 257 271 279 282 283 285 288 291 295 301 305 308 308 305 304 303 303 301 295 291 288 285 284 286 289 299 304 301 299 301 304 306 307 309 310 311 310 311 311 313 311 296 281 284 290 289 287 290
200 198 196 192 188 185 183 182 182 184 193 205 211 214 218 222 226 230 235 246 259 260 256 255 255 255 255 251 246 244 244 244 248 256 253 245 248 264 276 280 281 283 288 293 296 300 305 306 308 308 306 305 302 301 299 295 291 289 286 288 290 293 301 306 306 307 309 309 311 312 313 315 314 312 315 318 321 318 304 292 291 289 286 288 292
204 199 192 188 186 185 185 186 188 193 201 209 212 213 216 222 226 230 237 248 257 258 255 254 255 254 250 245 241 236 231 229 237 248 244 242 257 273 277 280 284 288 295 299 300 302 304 305 307 309 307 304 301 299 300 298 293 291 292 295 294 295 302 305 306 308 309 308 310 311 312 317 319 319 322 324 324 322 315 308 302 294 290 291 291
202 195 189 187 187 189 190 193 196 202 206 209 210 213 217 223 227 231 242 253 256 254 254 251 248 245 240 235 229 222 223 231 234 231 233 246 263 274 276 279 285 292 297 299 299 300 303 303 306 309 308 305 302 300 301 301 297 295 294 292 289 292 299 302 303 305 306 307 309 309 311 318 322 323 325 325 325 324 320 314 309 303 298 294 292
197 192 190 189 190 193 196 199 203 207 206 204 207 214 221 230 239 246 254 258 255 251 249 243 238 232 226 223 217 214 220 232 232 227 237 251 260 268 274 278 287 294 295 295 295 297 300 302 305 310 309 306 304 301 300 300 296 290 283 278 282 290 295 299 302 305 307 307 308 311 314 320 323 324 325 324 323 323 319 315 315 313 308 302 297
193 190 189 190 192 196 200 202 203 203 200 200 206 214 221 237 256 263 260 256 250 244 238 230 224 217 213 216 216 215 221 228 234 242 247 248 252 263 273 280 289 291 289 290 292 295 298 301 306 309 309 309 309 307 303 300 292 279 271 274 284 291 296 301 304 306 308 309 310 313 318 322 323 323 323 323 323 322 320 319 319 318 315 313 311
189 186 186 188 192 197 201 200 197 197 195 198 210 218 221 232 252 258 253 248 241 235 227 218 210 203 206 215 218 216 221 228 230 232 235 240 252 264 272 279 284 286 285 287 290 292 298 303 306 310 313 314 315 314 307 296 282 272 273 280 288 295 300 305 309 311 312 313 314 316 319 323 324 323 324 325 324 323 322 322 323 321 321 321 321
180 181 182 185 189 193 197 196 197 200 197 197 211 221 222 229 245 248 243 238 232 228 221 209 199 196 207 222 225 221 227 232 226 223 231 244 252 258 268 275 279 283 283 285 288 292 298 302 305 312 318 316 311 305 294 284 279 277 281 286 291 296 302 309 316 319 316 315 316 317 319 324 327 327 329 329 326 325 326 326 326 328 329 329 328
177 179 181 185 186 185 186 188 193 199 199 200 210 219 227 242 257 254 245 236 230 227 218 203 192 192 205 223 238 241 239 236 229 229 237 243 246 255 266 272 277 281 282 283 288 293 296 299 301 306 310 304 297 290 286 285 286 284 284 288 291 298 308 319 326 328 323 321 321 317 319 327 331 332 335 333 328 329 331 329 328 331 332 330 329
176 176 178 181 181 181 181 183 189 196 202 207 216 227 239 250 256 254 245 236 230 225 212 199 192 192 201 217 235 242 238 231 226 230 234 236 244 256 264 269 273 275 276 281 288 292 292 291 289 287 293 293 288 284 282 281 281 280 282 290 301 311 320 327 331 332 328 326 323 320 323 330 333 335 337 335 331 332 336 334 330 329 330 330 329
174 174 175 178 181 184 187 191 195 200 203 208 217 226 235 244 250 248 244 238 229 219 208 200 200 204 209 215 218 218 220 222 223 227 232 237 247 255 258 263 266 267 272 281 287 287 279 269 265 268 276 279 276 274 270 266 270 282 293 306 319 328 332 332 333 334 333 331 327 325 327 332 334 337 338 335 332 335 338 339 336 331 332 334 331
173 174 178 183 188 192 195 196 196 196 196 200 206 214 224 234 238 237 236 233 228 222 217 212 214 220 222 214 205 200 207 218 225 230 233 238 247 251 253 258 261 265 274 282 282 275 257 243 244 250 255 258 259 257 258 265 285 307 319 329 338 343 343 341 338 335 334 334 333 331 332 333 335 339 339 336 335 338 340 341 340 336 335 336 332
174 179 187 192 194 195 195 194 194 194 194 194 193 192 200 213 218 219 222 225 225 225 224 223 227 230 223 208 201 204 216 228 232 232 234 239 245 249 254 257 257 258 266 265 245 231 228 229 236 242 242 242 244 249 271 301 320 334 344 350 351 347 344 342 339 336 334 335 335 336 337 337 336 338 339 336 335 339 342 342 341 339 338 336 332
176 184 190 191 191 192 192 193 193 193 190 188 186 182 177 176 185 197 206 213 216 219 222 223 223 218 209 201 200 206 218 230 232 229 231 237 244 248 248 246 240 240 252 244 222 222 227 231 232 229 224 223 228 250 301 323 332 339 344 349 350 348 345 342 338 337 336 336 337 339 342 344 342 341 340 336 335 338 342 344 345 343 341 337 334
177 184 188 189 189 193 196 194 190 186 184 186 189 186 176 162 154 159 172 184 192 198 202 203 195 188 189 197 203 205 211 219 224 225 228 232 238 239 232 222 217 219 223 222 223 226 226 221 213 206 205 211 222 272 313 324 332 336 339 343 346 346 344 339 335 337 339 341 342 344 347 350 349 346 344 341 338 339 342 344 344 344 341 340 338
180 185 191 194 196 201 204 204 202 204 206 206 203 197 189 176 160 149 149 159 169 174 177 179 180 181 186 193 199 202 206 211 215 217 219 222 224 221 216 216 218 220 226 226 221 214 206 202 199 198 201 211 248 304 317 324 330 331 334 339 343 343 342 337 336 340 345 348 350 350 351 355 354 350 348 346 342 341 343 343 342 342 343 342 338
192 196 202 205 206 208 211 215 221 226 226 221 211 202 197 191 180 170 164 160 162 169 170 164 163 170 176 179 185 192 195 197 201 203 201 205 212 215 220 221 214 210 221 224 216 205 194 190 193 199 205 227 291 319 325 326 326 327 330 338 344 346 344 344 348 352 352 353 355 355 356 359 359 354 350 348 345 343 344 346 345 344 343 340 336
215 216 215 216 216 215 217 225 229 227 223 219 213 207 203 199 194 190 184 178 173 166 151 140 147 161 168 169 175 182 181 177 175 172 171 184 199 204 205 202 198 196 201 206 205 197 191 191 197 205 222 269 314 330 329 326 325 325 329 340 349 352 352 355 360 1 359 359 359 359 359 1 2 359 354 350 346 343 342 344 345 344 341 339 337
256 252 241 234 233 231 232 235 234 231 227 223 218 212 207 204 202 198 193 188 178 163 148 145 153 160 163 167 172 172 169 165 160 152 147 151 166 181 193 201 204 203 198 196 193 185 184 193 203 213 244 292 321 330 326 322 324 325 330 342 353 356 359 5 7 5 4 4 2 1 2 3 4 3 359 352 347 344 343 341 340 340 343 344 341
261 249 237 231 236 243 243 239 236 234 230 223 217 212 208 206 202 192 184 180 174 167 167 168 166 162 163 169 172 172 168 164 157 149 140 141 157 181 204 217 221 219 209 199 188 181 179 181 188 208 266 310 325 328 324 321 322 327 334 347 358 4 10 13 12 7 5 5 4 3 4 3 4 4 1 354 347 347 347 345 341 341 347 351 350
236 229 224 223 228 231 229 227 224 222 219 218 218 216 209 199 187 182 184 185 184 185 186 181 175 171 172 173 175 177 176 175 178 180 179 183 196 212 226 231 231 229 221 205 188 177 173 170 171 199 280 322 330 330 328 325 323 330 342 355 6 14 18 17 13 9 6 6 6 6 4 3 3 5 4 358 349 347 349 349 348 346 347 352 354
187 188 193 197 204 207 207 208 208 208 211 216 217 213 202 185 174 184 193 195 196 198 194 183 177 180 181 177 178 183 189 194 204 211 213 217 224 230 235 236 235 232 221 205 191 181 177 175 176 197 263 313 329 334 335 330 325 331 348 5 14 19 20 19 15 12 10 8 6 5 5 4 2 3 5 3 357 353 352 352 352 351 348 349 352
150 147 152 160 166 168 168 170 180 192 202 209 210 204 195 183 183 193 198 197 199 200 191 180 181 190 190 184 182 187 196 206 220 230 231 228 226 227 231 236 238 235 222 207 198 193 189 187 192 213 249 295 324 334 334 329 326 328 341 7 27 26 25 23 18 13 11 9 6 4 5 4 3 3 3 3 1 0 358 356 356 358 359 356 353
148 145 147 147 145 138 133 138 154 173 186 198 203 200 194 189 190 195 198 199 201 197 188 185 191 196 194 189 187 191 200 211 223 232 233 230 226 226 229 235 240 238 224 209 204 205 205 201 207 224 243 279 317 329 328 322 321 320 326 18 37 32 27 24 19 14 11 7 5 5 4 4 4 3 1 0 2 5 7 5 3 2 5 6 2
149 148 147 142 134 124 123 136 153 169 184 196 201 199 195 193 192 193 195 197 199 196 192 193 195 194 192 191 192 199 207 214 218 221 225 226 224 224 227 233 238 235 224 213 211 214 216 215 218 229 243 275 312 326 324 314 309 309 318 61 48 37 32 26 20 15 11 6 5 5 4 3 4 3 1 1 3 6 9 11 10 7 9 11 10
156 151 144 137 133 131 139 154 170 183 187 188 187 187 187 188 189 189 191 192 194 196 198 198 195 192 191 194 200 208 216 220 219 220 223 224 223 224 227 230 229 224 219 217 216 217 220 224 227 233 247 281 310 320 320 310 304 310 343 65 52 40 33 26 21 16 12 8 6 6 5 3 1 1 2 3 4 5 10 14 14 12 11 12 15
151 144 138 136 137 140 151 165 174 177 174 171 173 176 178 179 183 186 189 190 190 195 202 201 197 193 194 198 204 210 216 221 224 227 230 228 225 225 224 221 219 217 217 219 216 214 219 226 230 236 258 288 307 320 326 322 319 332 346 34 50 38 28 24 21 16 10 8 7 6 5 3 1 0 3 5 4 6 10 14 15 15 13 13 16
142 140 139 139 141 146 154 160 162 163 162 163 168 172 174 176 180 186 191 192 191 196 202 202 199 197 198 201 205 210 216 222 227 232 234 231 227 225 220 216 214 213 213 212 210 211 216 223 230 245 268 282 297 338 357 353 350 2 10 9 18 23 20 18 15 11 7 5 5 5 4 2 1 1 3 5 6 7 10 15 17 17 15 14 15
141 141 141 142 145 150 153 155 158 160 161 162 164 164 166 168 171 179 189 195 199 203 205 204 203 202 202 204 209 213 218 224 229 234 235 233 230 226 221 217 216 215 213 211 211 213 215 218 230 254 270 265 275 12 13 7 8 14 16 13 9 6 9 7 6 5 3 1 2 3 2 1 1 3 3 5 7 9 13 18 22 22 20 17 17
142 140 140 142 145 148 150 154 158 158 153 149 148 150 160 172 175 179 189 196 203 209 212 212 211 211 210 211 216 221 224 226 229 233 236 235 234 229 222 219 219 220 220 218 217 215 214 216 228 251 256 235 198 33 30 35 38 30 22 18 10 355 349 354 357 359 359 358 359 360 359 359 360 3 7 10 11 12 18 24 26 26 27 26 25
139 136 137 138 140 145 150 156 159 155 144 137 137 145 169 189 196 198 201 205 211 217 222 223 221 219 219 222 224 226 228 228 230 233 234 232 230 228 224 220 220 222 223 222 220 218 216 218 229 243 236 215 197 57 49 53 52 44 34 25 12 351 332 329 341 351 352 353 355 356 356 358 360 4 11 16 16 18 25 30 29 30 34 36 34
138 137 139 138 137 140 145 147 150 149 142 144 157 176 206 222 230 230 225 225 229 231 234 236 233 230 231 232 231 230 229 229 229 230 229 225 223 225 226 224 221 223 227 227 225 222 219 219 228 235 226 213 211 203 58 52 49 45 38 29 17 359 332 311 315 333 341 345 349 350 349 354 360 6 15 21 22 25 32 36 36 37 42 43 40
150 149 146 142 140 141 140 141 152 172 202 232 246 256 258 256 255 252 247 244 242 240 239 241 240 238 237 237 235 232 230 228 227 227 226 223 220 221 225 226 226 227 230 230 228 226 223 222 226 227 220 215 217 221 229 33 33 33 29 23 15 5 343 307 290 303 323 334 341 343 344 353 3 11 20 26 31 35 39 42 43 46 49 48 45
164 163 159 156 153 152 152 155 165 186 221 257 275 282 282 276 270 264 257 251 247 245 243 242 242 241 241 241 240 237 233 231 228 226 225 223 221 221 224 228 229 229 229 229 229 227 225 224 224 223 218 217 219 224 234 298 352 2 6 7 6 1 349 317 281 280 302 321 332 333 339 355 8 18 30 37 41 43 44 46 50 54 56 54 51
Height
773 775 777 779 782 784 787 790 793 796 798 800 803 806 810 812 813 814 815 816 817 818 819 821 821 822 822 823 824 825 825 826 826 827 826 826 826 826 826 826 827 826 826 825 824 823 823 823 823 823 823 823 822 822 822 821 821 820 820 820 819 818 817 817 816 813 809 809 810 810 810 810 808 806 805 803 801 801 800 798 796 795 793 791 790
768 771 774 776 778 779 781 785 789 793 795 798 800 803 807 811 812 813 814 815 816 817 818 819 820 820 821 822 823 823 823 824 824 824 824 824 823 824 824 824 824 824 824 823 822 822 822 821 821 821 821 821 820 820 820 819 819 818 818 817 816 815 815 814 813 811 807 806 807 807 807 807 805 803 802 800 798 797 795 793 792 791 789 788 785
765 769 772 772 772 774 777 781 786 789 791 793 796 798 800 806 809 811 812 814 814 815 816 817 818 819 819 820 820 821 821 822 822 822 822 821 821 821 821 822 822 822 822 821 821 820 820 819 819 819 819 818 818 818 817 817 817 816 816 815 814 813 812 812 811 810 807 804 805 805 804 804 802 800 799 797 795 794 791 789 788 786 785 784 782
764 767 768 767 768 772 776 779 782 784 785 788 791 792 793 798 805 808 810 811 812 813 814 815 816 816 817 818 818 819 819 819 819 820 819 819 819 819 819 819 819 819 819 819 819 819 818 817 816 816 816 816 815 815 815 815 814 814 813 812 812 810 810 810 809 808 806 804 803 802 802 801 799 798 796 794 792 790 788 785 784 782 780 779 778
762 763 763 765 767 771 774 777 778 779 780 783 787 789 789 793 800 804 807 809 810 811 813 813 814 814 814 814 815 816 816 817 817 817 817 817 817 817 817 817 817 817 817 817 817 817 816 815 814 814 814 813 813 813 812 812 812 811 811 810 809 808 808 807 806 805 805 803 801 799 799 798 796 795 794 792 789 786 784 781 780 778 776 774 773
758 759 761 763 765 769 772 773 773 774 777 780 784 787 789 791 796 801 803 805 807 809 810 810 811 811 811 812 812 813 813 814 814 814 815 815 815 815 815 815 815 815 815 816 815 815 814 813 812 812 812 811 811 810 810 810 809 808 808 807 807 806 805 804 803 803 802 801 799 797 795 795 793 791 790 790 788 784 781 778 775 774 773 770 768
754 756 757 759 761 764 765 766 767 769 773 776 780 783 786 787 791 795 799 801 804 805 806 807 808 808 809 809 809 810 810 811 811 812 812 812 812 812 812 812 812 812 813 813 813 813 812 811 811 810 810 809 809 808 808 807 806 805 805 804 804 804 803 802 801 800 799 799 798 795 793 792 791 789 787 786 785 782 779 775 772 769 769 767 764
750 751 752 753 755 758 760 761 763 766 770 773 776 780 781 783 787 793 797 798 800 802 804 805 805 805 805 805 806 807 807 808 808 809 809 810 810 810 809 810 810 810 811 811 810 810 810 809 809 808 808 807 807 807 806 805 804 803 802 802 802 801 800 799 798 797 797 797 796 794 792 790 788 787 785 783 781 778 776 774 770 766 764 763 761
745 746 747 749 751 754 757 759 761 765 769 772 776 779 781 785 790 795 796 795 796 799 801 802 801 801 802 803 803 804 805 805 806 806 807 808 808 808 807 807 808 808 808 808 808 808 807 807 806 806 806 805 805 804 804 803 802 800 800 800 799 798 797 796 795 795 795 795 794 792 791 788 786 784 783 780 778 775 773 771 767 763 760 758 756
741 743 744 745 749 752 754 756 759 762 765 770 776 780 785 790 795 796 796 794 793 795 797 798 798 798 799 800 802 802 802 803 804 805 805 806 806 806 806 806 806 806 806 806 806 805 805 805 804 804 803 803 803 802 801 800 799 798 798 797 796 796 795 794 793 792 792 793 792 791 789 786 784 782 780 777 775 773 771 768 764 760 758 753 749
738 739 740 743 746 749 750 752 755 758 761 767 774 779 783 786 790 792 793 792 791 791 792 793 794 795 797 799 800 800 800 801 802 803 804 804 804 804 804 804 804 804 804 803 803 803 802 802 802 801 801 800 800 800 799 798 796 796 795 794 794 793 792 792 791 790 790 790 790 789 788 784 782 780 777 774 772 770 768 766 762 758 756 752 744
735 736 737 740 742 744 746 749 753 757 760 764 769 773 776 777 780 785 786 786 787 788 789 790 791 793 796 797 797 798 798 799 800 801 801 802 802 802 802 802 802 801 801 801 800 800 800 799 799 798 798 797 797 797 796 795 793 793 792 791 790 790 788 788 788 787 787 787 787 787 785 783 780 777 774 772 770 768 765 763 760 757 754 750 743
732 733 734 737 738 740 744 747 752 756 758 760 763 768 772 773 775 779 781 782 784 785 786 787 789 791 793 793 794 795 795 797 797 798 799 799 799 799 799 799 799 799 798 798 798 798 797 797 796 796 795 795 795 794 793 792 790 789 788 787 786 786 785 785 785 784 784 785 785 784 782 781 779 775 772 770 768 765 762 759 757 754 750 747 742
729 731 732 734 736 739 743 747 752 755 756 758 762 766 770 771 772 775 777 779 781 783 784 786 787 788 789 790 791 792 793 794 794 795 796 796 796 796 796 796 796 796 796 796 796 795 795 794 793 793 792 792 792 792 790 789 787 786 785 784 783 783 782 782 782 782 781 782 782 780 779 778 776 773 769 767 765 763 760 756 754 751 747 745 741
728 729 731 733 735 739 742 747 751 754 757 760 763 766 769 769 770 772 775 777 779 781 783 784 784 785 786 788 789 789 790 791 792 792 793 793 793 793 793 793 793 793 793 793 793 793 792 791 791 790 790 790 789 789 788 786 784 783 782 781 780 780 779 779 780 779 779 779 779 778 776 774 773 770 767 764 762 759 757 754 751 748 744 741 736
726 728 730 732 735 739 742 746 750 753 758 761 763 764 766 767 769 771 774 776 778 779 781 782 782 783 785 786 787 787 787 789 790 790 790 791 791 790 790 790 790 791 791 791 791 790 789 789 788 788 787 787 787 786 785 784 783 781 780 779 778 777 777 777 778 777 777 777 776 775 773 771 768 766 763 761 758 755 753 751 747 744 741 735 728
724 726 729 732 735 738 741 745 748 751 755 759 760 761 763 765 768 771 773 775 776 777 779 779 780 781 783 784 784 784 785 787 787 787 788 788 788 788 787 787 788 789 789 788 788 788 787 787 786 785 785 784 784 784 783 782 781 780 779 778 776 775 775 775 775 775 775 774 773 771 769 766 763 761 758 756 754 753 752 748 743 741 738 731 722
723 726 728 731 734 737 740 743 746 749 752 755 756 758 761 765 768 770 772 773 774 776 776 777 778 779 780 781 782 782 783 784 785 785 786 786 786 786 785 786 786 786 786 786 785 785 785 784 784 784 783 782 782 781 781 780 779 778 777 776 775 774 774 774 773 772 772 771 769 767 764 761 759 756 754 752 750 750 749 745 740 738 735 727 719
723 725 727 730 733 737 739 742 744 747 750 752 754 757 761 764 767 768 770 771 772 773 773 774 775 776 777 778 779 780 781 782 783 783 784 784 784 783 783 783 784 784 783 783 782 782 782 782 782 782 782 781 780 779 778 778 777 776 775 774 774 773 772 772 771 770 769 767 765 763 760 758 756 753 750 748 746 745 744 740 737 735 731 724 718
723 726 729 731 734 736 739 741 743 745 747 750 754 757 760 762 764 765 766 768 768 769 770 771 772 773 775 776 777 778 779 779 779 781 782 783 781 780 780 781 782 781 780 780 780 780 780 781 781 780 780 778 777 777 776 776 775 774 773 773 772 771 771 771 770 769 767 765 763 760 757 755 752 750 747 745 742 740 738 736 733 731 728 721 715
725 727 730 732 734 736 738 740 742 744 746 751 755 757 758 759 760 761 763 764 765 766 767 768 769 771 772 773 775 775 775 775 776 777 778 779 779 778 778 779 779 779 778 778 778 779 779 779 779 778 777 776 775 775 774 774 773 772 772 772 771 770 770 769 768 767 765 763 761 758 755 752 750 747 744 742 739 737 734 731 729 726 724 719 711
725 727 729 731 733 735 737 739 742 745 748 751 754 755 755 757 759 760 761 762 763 764 764 765 767 769 770 771 771 770 771 772 773 774 775 776 776 776 776 777 777 777 776 777 777 777 778 777 776 776 775 774 773 773 772 772 771 771 771 771 770 770 769 768 766 765 763 761 759 756 753 750 748 745 742 739 736 734 731 727 724 721 717 714 708
725 727 729 731 733 735 737 740 742 745 747 749 750 750 751 755 757 759 760 761 761 762 762 764 765 767 767 768 767 767 768 770 771 772 773 774 774 774 775 775 775 775 775 776 776 776 776 775 774 773 772 771 771 770 770 770 770 771 771 771 770 769 768 767 765 763 762 760 758 755 751 749 746 743 740 737 733 730 727 723 719 716 711 706 701
725 727 729 731 733 735 737 739 742 744 745 747 748 748 749 752 755 757 759 760 761 761 761 762 764 765 766 766 766 766 767 767 769 770 771 772 772 772 773 774 774 774 774 774 775 775 774 773 772 771 770 769 769 769 769 770 770 771 771 770 769 768 767 765 764 762 760 758 756 753 750 748 745 742 738 735 731 727 724 720 715 711 707 701 695
724 726 728 730 732 734 736 738 739 741 743 745 747 748 748 750 752 754 756 757 758 759 760 761 762 763 764 764 764 765 765 765 767 768 769 770 770 771 772 772 772 773 773 773 773 773 772 771 769 769 768 768 768 769 770 770 771 771 771 770 769 767 765 764 762 760 759 757 754 752 749 746 744 741 737 733 729 725 721 717 712 707 702 697 690
723 725 727 728 730 732 733 735 737 739 741 743 745 746 748 749 750 751 752 753 755 757 758 760 761 761 761 762 762 763 763 763 765 766 767 768 769 770 770 770 771 771 771 771 771 771 770 769 768 768 768 768 769 770 770 771 771 771 771 770 768 766 764 762 761 759 757 755 753 750 747 745 742 739 735 731 727 724 720 716 710 704 699 694 686
722 724 726 727 729 731 732 734 736 737 739 740 742 745 746 747 747 748 750 751 753 755 757 758 758 759 759 760 761 761 761 762 763 764 765 766 767 768 768 769 769 770 769 770 769 768 768 767 767 767 768 768 769 770 770 771 771 771 770 769 767 765 763 761 760 758 756 754 751 749 746 743 740 737 733 730 725 722 719 715 710 704 698 694 687
722 724 725 727 728 730 731 732 733 734 736 737 739 741 742 744 746 747 748 749 751 753 754 755 755 755 756 758 759 759 760 761 761 763 764 765 766 766 767 768 768 768 768 767 767 766 766 766 767 768 768 769 770 771 771 771 771 770 769 768 766 764 762 760 758 756 754 752 750 747 744 741 739 735 732 728 724 721 717 714 710 704 699 694 688
722 723 724 725 727 728 729 730 730 731 732 734 736 737 739 742 744 745 746 747 748 750 751 751 751 752 753 755 756 757 758 759 760 761 763 764 764 765 765 766 766 766 766 765 765 765 765 766 768 769 769 770 771 771 771 770 770 769 768 766 765 763 761 759 757 755 752 750 748 746 743 740 737 735 731 727 723 719 716 712 708 704 699 695 690
720 722 722 723 724 725 726 728 729 730 731 732 734 736 738 741 742 743 744 745 747 748 749 749 750 750 751 752 754 755 756 757 759 760 761 762 763 764 764 765 764 764 764 764 764 765 766 767 769 769 770 770 770 770 770 769 768 767 766 764 763 762 760 758 755 753 751 749 747 744 742 740 737 734 731 727 722 718 715 712 708 704 700 696 691
718 719 719 721 722 722 724 726 728 729 731 732 733 735 737 739 740 742 743 744 745 746 747 747 748 749 750 751 752 754 755 756 757 759 760 761 762 763 763 764 763 763 763 763 764 765 767 768 769 769 770 770 769 769 768 768 767 766 764 763 762 760 758 756 754 752 750 748 746 744 741 739 737 734 731 728 723 718 714 711 707 704 700 696 692
716 717 719 721 722 723 724 725 727 728 729 730 732 733 735 737 739 741 742 743 744 745 746 747 748 748 749 750 751 753 754 755 756 758 759 760 761 762 763 763 763 763 763 763 764 766 767 768 769 769 769 768 767 767 767 766 766 765 763 762 760 759 757 755 753 751 749 747 745 743 740 738 736 734 731 728 723 719 715 711 708 705 701 696 692
717 718 719 721 722 723 724 725 725 726 727 728 730 732 733 735 737 740 742 743 744 746 746 747 748 748 749 750 751 752 754 755 756 758 759 760 761 761 762 762 762 762 763 763 765 766 767 767 768 768 768 767 766 766 766 765 765 764 762 761 759 758 756 754 752 750 749 746 744 742 740 738 736 733 731 728 723 720 716 713 709 706 703 699 694
718 718 720 721 721 722 723 723 723 724 726 727 729 731 733 735 737 739 741 743 745 746 747 747 748 749 750 751 751 752 754 755 756 757 758 759 760 761 761 762 762 763 763 764 765 765 766 766 767 766 766 765 765 765 765 765 765 763 762 760 759 757 755 753 751 750 748 745 743 741 739 738 736 734 731 727 723 720 716 713 711 707 704 701 697
718 718 719 720 721 721 721 721 722 723 725 727 729 731 733 735 737 739 741 742 744 746 747 748 750 750 751 752 753 754 754 755 756 757 758 758 759 760 761 762 763 763 764 764 764 765 765 765 765 765 765 764 764 764 765 764 764 763 761 759 757 756 754 752 751 749 747 745 743 741 739 738 736 734 732 728 725 720 716 714 712 709 706 703 699
717 718 718 719 719 720 720 721 722 723 725 727 729 731 733 735 738 740 741 743 744 746 748 749 751 751 752 752 753 754 755 755 756 757 758 758 759 760 761 762 763 763 763 763 763 763 764 764 764 764 764 764 764 764 764 764 763 762 760 758 756 755 753 752 750 748 747 745 743 741 739 738 736 734 732 729 726 722 718 714 712 710 706 704 700
715 716 716 717 718 718 719 721 722 724 725 727 729 731 734 736 738 740 741 743 744 746 747 749 750 751 752 752 753 754 755 755 756 757 758 759 759 760 761 762 762 762 762 762 762 762 762 763 763 763 764 764 764 764 764 763 763 761 759 758 756 754 752 751 749 748 747 745 743 741 739 738 736 734 732 729 726 723 719 715 712 709 706 704 700
713 714 715 717 718 719 720 721 723 724 726 728 730 731 733 735 737 739 740 742 743 745 745 747 748 749 750 751 753 754 755 756 756 757 758 759 759 760 760 761 761 761 760 760 760 761 761 762 762 763 764 764 764 764 764 763 762 760 758 757 755 753 752 751 749 748 747 745 744 742 740 738 736 734 732 730 727 724 720 716 713 710 706 704 701
712 714 716 717 718 719 720 722 723 725 726 728 729 731 733 735 737 738 739 741 742 743 744 746 747 748 749 751 753 754 755 755 755 756 757 758 758 759 759 760 760 760 760 759 760 760 760 761 762 762 763 764 764 764 763 762 761 759 758 756 754 752 751 750 749 748 747 745 744 742 740 738 736 734 732 730 728 725 721 717 714 711 708 705 703
712 714 716 717 719 720 721 722 723 725 726 727 729 730 732 734 735 737 738 740 741 742 743 746 748 749 750 751 751 752 753 754 754 755 756 756 757 757 758 758 758 759 759 759 759 759 759 760 761 762 763 764 764 763 762 761 760 758 757 755 753 752 751 750 749 748 747 746 744 743 741 739 736 734 732 730 728 726 723 719 716 713 710 707 704
712 714 716 718 719 720 720 722 724 725 726 727 728 730 731 733 734 735 737 738 739 741 743 745 747 748 750 750 751 751 752 752 753 753 754 755 756 756 756 757 757 757 758 758 758 758 759 759 760 762 762 763 763 762 761 760 759 758 756 754 753 751 750 750 749 748 747 746 745 743 741 739 737 735 732 730 728 726 724 720 717 714 711 708 705
712 714 716 717 719 719 720 722 724 725 726 727 728 730 731 732 733 735 736 737 739 740 741 743 745 746 748 749 750 750 751 751 752 752 753 753 754 755 755 756 756 756 757 757 757 758 758 759 760 761 761 762 762 761 760 759 758 756 755 753 752 751 750 750 749 748 747 747 745 744 742 740 738 736 733 731 728 726 724 721 718 715 712 710 707
713 714 716 717 718 719 721 723 724 726 727 728 728 730 731 732 733 734 735 736 738 739 740 741 743 745 747 748 748 749 750 751 751 751 751 752 753 753 754 754 754 755 756 756 757 757 758 759 759 760 760 760 760 760 759 758 757 755 754 752 751 750 750 749 749 748 748 747 745 744 742 741 739 737 734 731 729 727 724 722 719 716 713 711 708
713 714 716 717 718 720 722 723 725 726 727 728 729 730 731 731 733 733 734 735 737 737 738 740 741 743 744 746 747 748 749 749 750 750 750 750 751 752 752 753 753 754 755 756 756 757 758 758 759 759 759 759 759 758 758 757 756 754 753 752 751 750 750 749 749 748 747 747 745 744 743 741 740 737 735 733 730 727 725 723 720 718 715 712 710
714 715 716 717 719 720 722 724 725 726 727 729 730 730 731 732 732 732 733 734 735 736 737 738 740 741 743 744 745 746 747 747 748 748 748 749 750 751 752 752 753 754 754 755 756 756 757 758 758 758 758 758 758 758 757 756 754 753 752 751 750 750 749 749 749 748 747 746 745 744 743 742 740 738 736 734 731 729 727 724 722 720 717 714 712
714 715 716 717 719 721 722 724 725 727 728 729 730 730 731 731 731 732 733 734 734 735 736 737 739 740 741 743 744 745 745 746 746 746 747 748 749 750 751 751 752 753 754 754 755 755 756 757 757 757 757 757 757 757 756 755 753 752 751 750 750 749 749 749 748 747 747 746 745 744 743 742 741 739 737 735 733 731 728 726 724 721 719 717 715
714 715 716 718 719 721 722 724 725 726 727 728 729 729 730 731 731 732 733 733 734 735 736 736 738 739 740 741 742 743 743 744 744 745 746 746 747 748 749 750 751 752 752 753 754 754 755 756 756 756 756 756 756 756 755 754 753 752 751 750 749 749 748 748 748 747 747 746 745 744 743 742 741 740 738 736 734 732 730 728 725 723 721 719 717
714 715 717 718 719 721 723 724 725 726 726 727 728 729 730 731 731 732 732 732 733 734 734 735 736 737 738 739 740 740 741 742 743 743 744 745 746 747 748 749 750 751 751 752 753 753 754 755 755 755 755 756 756 755 755 753 752 751 750 749 749 748 748 748 748 747 747 746 745 744 744 742 741 740 739 737 735 733 731 729 727 725 723 721 719
715 716 717 718 720 721 722 723 724 725 726 727 728 729 730 730 731 731 731 732 732 732 733 734 734 735 736 736 737 738 739 740 741 742 743 743 745 746 747 747 748 749 749 750 751 752 752 753 754 754 754 755 755 755 754 753 752 751 750 749 749 748 747 747 747 747 747 746 745 744 744 743 742 741 739 738 736 735 733 731 729 727 725 722 720
715 716 717 718 720 721 722 723 724 725 725 726 727 728 729 729 730 730 730 731 731 731 732 732 732 733 733 734 734 736 737 737 738 739 740 742 743 744 745 746 746 747 748 749 749 750 751 752 752 753 753 753 753 753 753 752 751 750 750 749 748 748 747 747 747 746 746 746 745 744 744 743 742 741 740 739 737 736 734 733 731 729 727 725 723
715 716 717 718 719 720 722 723 724 724 725 726 726 727 728 728 728 728 729 729 729 729 730 730 730 731 731 732 732 733 734 734 736 737 738 739 741 742 743 744 744 745 746 747 747 748 749 750 751 751 752 752 752 752 752 751 750 750 749 749 748 747 746 746 746 746 746 745 745 744 744 743 742 741 740 739 738 737 736 734 732 731 729 727 725